Location: Mascot Post Office (historical)
(40.2645°N, 99.5462°W)
Time: 17:22:12
(UTC+00:00)

Thor Agena Rocket - Pass Details

Date: 14 July 2020
Orbit: 759 x 808 km, 99.0° (Epoch: 05 August)

Event Time Altitude Azimuth Distance (km) Brightness Sun altitude
Rises 05:54:59 0° 8° (N) 3,241 7.8 -27.1°
Reaches altitude 10° 05:57:22 10° 3° (N) 2,305 6.9 -27.2°
Maximum altitude 06:02:13 48° 289° (WNW) 983 4.1 -27.4°
Enters shadow 06:02:48 46° 267° (W) 1,014 4.1 -27.4°
